Location: ???????
(55.4362°N, 38.1183°E)
Time: 19:53:17
(UTC+00:00)

M-CUBED/EXP-1 PRIME - Pass Details

Date: 10 December 2021
Orbit: 426 x 650 km, 101.7° (Epoch: 26 January)

Event Time Altitude Azimuth Distance (km) Brightness Sun altitude
Rises 15:05:01 0° 162° (SSE) 2,854 ? -16.6°
Reaches altitude 10° 15:07:08 10° 165° (SSE) 1,982 ? -16.9°
Maximum altitude 15:11:27 72° 250° (WSW) 677 ? -17.5°
Drops below altitude 10° 15:15:59 10° 335° (NNW) 2,068 ? -18.1°
Sets 15:18:14 0° 337° (NNW) 2,990 ? -18.4°
